Location: Newark
(43.5831°N, 21.3381°E)
Time: 06:53:28
(UTC+00:00)

Envisat - Pass Details

Date: 16 December 2019
Orbit: 764 x 766 km, 98.1° (Epoch: 20 January)

Event Time Altitude Azimuth Distance (km) Brightness Sun altitude
Rises 04:17:22 0° 27° (NNE) 3,241 6.4 -18.0°
Reaches altitude 10° 04:20:17 10° 44° (NE) 2,309 5.8 -17.5°
Maximum altitude 04:24:01 20° 92° (E) 1,697 5.7 -16.9°
Drops below altitude 10° 04:27:44 10° 139° (SE) 2,296 6.3 -16.2°
Sets 04:30:36 0° 156° (SSE) 3,216 6.9 -15.7°
